Tracking 25648 objects as of 17-May-2022
HD Live streaming from Space Station
objects crossing your sky now

FREGAT DEB

Track FREGAT DEB now!
10-day predictions


NORAD ID: 45979
Int'l Code: 2011-037GL
Perigee: 708.7 km
Apogee: 4,040.6 km
Inclination: 51.5 °
Period: 135.7 minutes
Semi major axis: 8745 km
RCS: Unknown
Launch date: July 18, 2011
Source: Commonwealth of Independent States (former USSR) (CIS)
Launch site: TYURATAM MISSILE AND SPACE COMPLEX (TTMTR)

Note: This is SATELLITE DEBRIS
aabbcc
Your satellite tracking list
Your tracking list is empty




NASA's NSSDC Master Catalog

Two Line Element Set (TLE):
1 45979U 11037GL  22136.72153430  .00000490  00000-0  10056-2 0  9992
2 45979  51.5112 261.2228 1904900 122.8986 256.9633 10.61495619 70332
Source of the keplerian elements: AFSPC